Regional Weather Roundup
Issued by NWS

Home | Current Version | Previous Version | Graphics & Text | Print | Product List | Glossary On
Versions: 1 2 3 4 5 6 7 8 9 10 11 12 13 14 15 16 17 18 19 20 21 22 23 24 25 26 27 28 29 30 31 32 33 34 35 36 37 38 39 40 41 42 43 44 45 46 47 48 49 50
000
ASUS43 KOAX 300902
RWRNE

WEATHER ROUNDUP FOR NEBRASKA
NATIONAL WEATHER SERVICE OMAHA NE
400 AM CDT SUN APR 30 2017

NOTES: SATELLITE DATA IS BEING USED TO AUGMENT CLOUD COVER ABOVE
       12000 FEET.
       "FAIR" INDICATES FEW OR NO CLOUDS BELOW 12,000 FEET WITH NO
       SIGNIFICANT WEATHER AND/OR OBSTRUCTIONS TO VISIBILITY.

  * THESE STATIONS DO NOT REPORT WEATHER SUCH AS RAIN...SNOW OR FOG.

NEZ001>004-019>022-054>056-301000-
NEBRASKA PANHANDLE

CITY           SKY/WX    TMP DP  RH WIND       PRES   REMARKS
SCOTTSBLUFF    CLEAR     33  24  69 NW12      30.06F WCI  24
ALLIANCE       CLEAR     29  24  82 N12       30.03F WCI  19
CHADRON        CLEAR     28  24  85 W3        30.08F
KIMBALL        CLOUDY    31  24  74 NW10      30.05S WCI  23
SIDNEY         CLOUDY    32  24  72 N14       30.03S WCI  22
$$

NEZ057>060-069>072-079>082-301000-
SOUTHWEST NEBRASKA

CITY           SKY/WX    TMP DP  RH WIND       PRES   REMARKS
NORTH PLATTE   CLOUDY    42  24  49 N17G28    29.94S
IMPERIAL       CLOUDY    38  26  62 N22G29    29.95F WCI  27
LEXINGTON      CLOUDY    38  31  77 NE24      29.87F WCI  27
MCCOOK         CLOUDY    35  33  92 N25       29.86F WCI  23
OGALLALA       CLOUDY    40  26  57 N14       29.99R WCI  33
$$

NEZ005>010-023>029-035>040-094-301000-
NORTH CENTRAL NEBRASKA

CITY           SKY/WX    TMP DP  RH WIND       PRES   REMARKS
VALENTINE      MOCLDY    41  22  46 N10       30.04S
AINSWORTH      CLOUDY    39  28  63 N9        30.01F WCI  33
BROKEN BOW     PTCLDY    40  27  59 NE15      29.91F WCI  32
O`NEILL        CLOUDY    42  25  50 NE10      30.00S
ORD            CLOUDY    41  29  62 NE14      29.93F
THEDFORD       CLOUDY    39  27  60 N9        29.99S WCI  33
$$

NEZ041-046>049-061>064-073>077-083>087-301000-
SOUTH CENTRAL NEBRASKA

CITY           SKY/WX    TMP DP  RH WIND       PRES   REMARKS
GRAND ISLAND   LGT RAIN  36  35  96 NE24G31   29.89F WCI  24
AURORA         RAIN      35  34  96 NE21G26   29.88F WCI  24
HASTINGS       RAIN      35  33  92 NE25G36   29.83F FOG     WCI  23
HEBRON         LGT RAIN  38  37  99 NE21G28   29.80F WCI  27
HOLDREGE       LGT SNOW  34  32  93 N28G35    29.84F WCI  20
KEARNEY *      CLOUDY    34  30  86 N18       29.87F WCI  23
YORK           MIX PCPN  37  37 100 NE23G29   29.88F WCI  26
$$

NEZ011>018-030>034-042>045-301000-
NORTHEAST NEBRASKA

CITY           SKY/WX    TMP DP  RH WIND       PRES   REMARKS
ALBION         LGT RAIN  40  35  81 NE21      29.96S WCI  30
BLAIR          RAIN      39  38  94 NE21G29   29.89F WCI  29
FREMONT        LGT RAIN  39  39  99 NE12G23   29.92F WCI  32
TEKAMAH        LGT RAIN  40  37  89 NE18G30   29.95R WCI  31
WAYNE          LGT RAIN  41  37  87 NE17G24   29.97S
$$

NEZ050>053-065>068-078-088>093-301000-
SOUTHEAST NEBRASKA

CITY           SKY/WX    TMP DP  RH WIND       PRES   REMARKS
LINCOLN        LGT RAIN  39  38  96 NE20G30   29.86F FOG     WCI  29
OMAHA EPPLEY   LGT RAIN  40  36  86 N16       29.90F FOG     WCI  31
BEATRICE       CLOUDY    39  38  96 NE18G28   29.81F WCI  30
FALLS CITY     CLOUDY    41  39  93 NE13G23   29.78F FOG
NEBRASKA CITY  LGT RAIN  39  39 100 NE18G25   29.84F WCI  29
PLATTSMOUTH    DRIZZLE   39  37  89 NE17      29.86F WCI  30
$$

NEZ044-045-051>053-067-301000-
OMAHA AREA

CITY           SKY/WX    TMP DP  RH WIND       PRES   REMARKS
OMAHA EPPLEY   LGT RAIN  40  36  86 N16       29.90F FOG     WCI  31
BLAIR          RAIN      39  38  94 NE21G29   29.89F WCI  29
FREMONT        LGT RAIN  39  39  99 NE12G23   29.92F WCI  32
MILLARD        RAIN      41  39  93 NE8       29.89F
OFFUTT AFB     LGT RAIN  40  38  91 N14       29.87F WCI  32
PLATTSMOUTH    DRIZZLE   39  37  89 NE17      29.86F WCI  30
WAHOO          LGT RAIN  39  38  93 NE20      29.89F WCI  30
$$




USA.gov is the U.S. government's official web portal to all federal, state and local government web resources and services.